[[{"header":{"parameterUnit":"m.s-1","parameterCategory":1,"la1":30.2991,"la2":30.254,"lo1":-89.0895,"lo2":-89.0444,"dy":0.0017,"dx":0.0017,"nx":28,"ny":28,"refTime":"2025-08-17T03:00:00:Z","depth":0,"parameterNumber":2,"parameterNumberName":"U-component_of_WINDS"},"data":[0,0,0,0,0,0,0,0,0,0,0,0,0,0,0,0,0,0,0,0,0,0,0,0,0,0,0,0,0,0,0,0,0,0,0,0,0,0,0,0,0,0,0,0,0,0,0,0,0,0,0,0,0,0,0,0,0,0,0.8934,0.8934,0,0.8936,0.8937,0.8937,0.8939,0.8939,0.8939,0.8939,0.8941,0.8941,0.8941,0,0,0,0,0,0,0,0,0,0,0,0,0,0.8933,0.8933,0.8934,0.8934,0.8934,0.8936,0.8937,0.8937,0.8939,0.8939,0.8939,0.8939,0.8941,0.8941,0.8941,0,0,0,0,0,0,0,0,0,0,0,0,0,0.8934,0.8933,0.8934,0.8936,0.8936,0.8936,0.8937,0.8937,0.8939,0.8939,0.8939,0.8939,0.8941,0.8941,0.8941,0.894,0,0,0.8941,0.8941,0,0,0,0,0,0,0,0,0.8934,0.8934,0.8936,0.8936,0.8936,0.8938,0.8937,0.8938,0.8939,0.8938,0.8939,0.8939,0.894,0.894,0.894,0.894,0.894,0.8941,0.8941,0.8941,0.8941,0,0,0,0,0,0,0,0.8934,0.8934,0.8935,0.8936,0.8936,0.8937,0.8937,0.8937,0.8938,0.8938,0.8938,0.8938,0.894,0.894,0.894,0.894,0.8941,0.8941,0.8941,0.8941,0.8941,0.8941,0,0,0,0,0,0,0.8934,0.8934,0.8935,0.8935,0.8935,0.8937,0.8937,0.8937,0.8938,0.8939,0.8938,0.8939,0.894,0.894,0.894,0.894,0.8941,0.8941,0.8941,0.8941,0.8941,0.8941,0,0,0,0,0,0,0.8934,0.8934,0.8935,0.8935,0.8935,0.8937,0.8937,0.8937,0.8937,0.8939,0.8939,0.8938,0.894,0.894,0.894,0.894,0.8941,0.8941,0.8941,0.8941,0.8941,0.8939,0,0,0,0,0,0,0.8934,0.8934,0.8933,0.8935,0.8935,0.8935,0.8937,0.8937,0.8937,0.8938,0.8939,0.8939,0.894,0.894,0.894,0.894,0.8941,0.8941,0.8941,0.8941,0.8939,0.8939,0.8939,0,0,0,0,0,0.8933,0.8932,0.8933,0.8933,0.8934,0.8935,0.8935,0.8936,0.8937,0.8937,0.8938,0.8939,0.894,0.894,0.894,0.894,0.8941,0.8941,0.8941,0.8939,0.8939,0.8939,0,0,0,0,0,0,0.8929,0.8932,0.8933,0.8932,0.8933,0.8935,0.8934,0.8936,0.8936,0.8937,0.8938,0.8939,0.8939,0.894,0.894,0.894,0.8941,0.8941,0.8939,0.8939,0.8939,0.8939,0.8941,0,0,0,0,0,0.8928,0.8929,0.8931,0.893,0.893,0.8932,0.8933,0.8934,0.8935,0.8935,0.8937,0.8938,0.8939,0.8939,0.894,0.8939,0.894,0.8939,0.8939,0.8939,0.8939,0.894,0.894,0.8941,0.8941,0.8941,0,0,0.8926,0.8928,0.8928,0.8929,0.893,0.8931,0.8933,0.8933,0.8933,0.8935,0.8936,0.8937,0.8939,0.8939,0.8939,0.8939,0.8939,0.8939,0.8939,0.8939,0.894,0.894,0.894,0.8941,0.8941,0.8941,0,0,0.8922,0.8923,0.8923,0.8924,0.8926,0.8928,0.8928,0.893,0.8931,0.8932,0.8934,0.8935,0.8936,0.8937,0.8938,0.8937,0.8938,0.8937,0.8936,0.8937,0.8937,0.8937,0.8937,0.8937,0.8937,0.8937,0.8937,0,0.8919,0.892,0.8922,0.8923,0.8924,0.8927,0.8927,0.8928,0.893,0.8931,0.8931,0.8934,0.8935,0.8936,0.8936,0.8936,0.8937,0.8936,0.8937,0.8937,0.8936,0.8937,0.8937,0.8937,0.8937,0.8937,0.8937,0,0.8917,0.8917,0.8917,0.8919,0.892,0.892,0.8923,0.8924,0.8926,0.8928,0.8929,0.8931,0.8933,0.8933,0.8934,0.8935,0.8935,0.8936,0.8937,0.8936,0.8936,0.8936,0.8937,0.8937,0.8937,0.8937,0,0,0.8909,0.8914,0.8914,0.8915,0.8919,0.8919,0.892,0.8922,0.8923,0.8925,0.8926,0.8928,0.893,0.8931,0.8932,0.8933,0.8933,0.8934,0.8935,0.8934,0.8935,0.8934,0.8934,0.8934,0.8934,0.8934,0.8935,0,0.8906,0.8907,0.891,0.8911,0.8912,0.8916,0.8917,0.8919,0.8921,0.8923,0.8926,0.8927,0.8929,0.8929,0.8931,0.8933,0.8933,0.8933,0.8936,0.8936,0.8935,0.8934,0.8932,0.8932,0.8935,0.8935,0.8935,0,0.8902,0.8904,0.8905,0.8909,0.891,0.8911,0.8914,0.8915,0.8918,0.892,0.8922,0.8925,0.8926,0.8928,0.8931,0.8931,0.8932,0.8934,0.8934,0.8934,0.8935,0.8934,0.8932,0.8932,0.8935,0.8935,0.8935,0,0.8896,0.89,0.8901,0.8903,0.8908,0.8908,0.891,0.8914,0.8915,0.8918,0.8919,0.8922,0.8924,0.8926,0.893,0.893,0.8933,0.8934,0.8934,0.8934,0.8934,0.8934,0.8933,0.8935,0.8935,0.8935,0.8935,0,0.8892,0.8893,0.8899,0.89,0.8901,0.8905,0.8906,0.8909,0.8912,0.8914,0.8917,0.8919,0.8924,0.8926,0.8929,0.8931,0.8932,0.8934,0.8934,0.8933,0.8933,0.8934,0.8934,0.8935,0.8935,0.8935,0.8935,0,0.8886,0.889,0.8892,0.8897,0.8899,0.8899,0.8904,0.8905,0.8908,0.8911,0.8912,0.8916,0.892,0.8924,0.8928,0.893,0.8932,0.8933,0.8931,0.8931,0.8931,0.8931,0.893,0.8931,0.8933,0.8933,0.8933,0,0.8883,0.8884,0.889,0.8891,0.8894,0.8896,0.8898,0.8903,0.8904,0.8909,0.891,0.8914,0.8917,0.8922,0.8926,0.893,0.8931,0.893,0.8931,0.893,0.8931,0.8931,0.8931,0.893,0.893,0.893,0.893,0,0.8878,0.888,0.8883,0.8887,0.8889,0.8892,0.8896,0.8897,0.8902,0.8904,0.8908,0.891,0.8916,0.8919,0.8924,0.8926,0.8929,0.893,0.893,0.8928,0.8927,0.8928,0.893,0.8929,0.8929,0.8929,0.8929,0.8929,0.8873,0.8874,0.8879,0.8882,0.8886,0.8889,0.8891,0.8895,0.8898,0.8902,0.8905,0.8909,0.8913,0.892,0.8923,0.8926,0.8927,0.8927,0.8927,0.8927,0.8927,0.8927,0.8927,0.8927,0.8927,0.8927,0.8927,0,0.8868,0.8872,0.8875,0.888,0.8883,0.8886,0.889,0.8892,0.8895,0.8899,0.8903,0.8908,0.8912,0.8917,0.8921,0.8923,0.8925,0.8924,0.8924,0.8925,0.8926,0.8925,0.8923,0.8923,0.8923,0.8923,0.8923,0.8923,0.8866,0.8868,0.8871,0.8876,0.888,0.8883,0.8886,0.8889,0.8893,0.8898,0.8901,0.8905,0.891,0.8915,0.8919,0.8921,0.8922,0.8921,0.8923,0.8924,0.8924,0.8925,0.8924,0.8922,0.8922,0.8922,0.8922,0.8922]},{"header":{"parameterUnit":"m.s-1","parameterCategory":1,"la1":30.2991,"la2":30.254,"lo1":-89.0895,"lo2":-89.0444,"dy":0.0017,"dx":0.0017,"nx":28,"ny":28,"refTime":"2025-08-17T03:00:00:Z","depth":0,"parameterNumber":3,"parameterNumberName":"V-component_of_WINDS"},"data":[0,0,0,0,0,0,0,0,0,0,0,0,0,0,0,0,0,0,0,0,0,0,0,0,0,0,0,0,0,0,0,0,0,0,0,0,0,0,0,0,0,0,0,0,0,0,0,0,0,0,0,0,0,0,0,0,0,0,-1.8918,-1.8918,0,-1.8957,-1.8957,-1.8958,-1.8958,-1.8957,-1.8957,-1.8956,-1.8995,-1.8996,-1.8997,0,0,0,0,0,0,0,0,0,0,0,0,0,-1.8842,-1.8844,-1.8918,-1.8918,-1.8919,-1.8957,-1.8957,-1.8958,-1.8958,-1.8957,-1.8957,-1.8956,-1.8994,-1.8996,-1.8998,0,0,0,0,0,0,0,0,0,0,0,0,0,-1.8878,-1.8844,-1.8918,-1.8924,-1.8924,-1.8957,-1.8957,-1.8958,-1.8958,-1.8957,-1.8957,-1.8956,-1.8993,-1.8996,-1.8998,-1.9026,0,0,-1.9005,-1.9006,0,0,0,0,0,0,0,0,-1.8876,-1.888,-1.8922,-1.8923,-1.8924,-1.8952,-1.8945,-1.8981,-1.8958,-1.8945,-1.8956,-1.8956,-1.8981,-1.8984,-1.8993,-1.9028,-1.903,-1.9005,-1.9006,-1.9007,-1.9008,0,0,0,0,0,0,0,-1.8873,-1.8879,-1.8933,-1.8923,-1.8924,-1.8924,-1.8928,-1.8952,-1.8967,-1.8946,-1.8946,-1.8951,-1.8981,-1.8991,-1.8994,-1.903,-1.9005,-1.9007,-1.9008,-1.9009,-1.9091,-1.9092,0,0,0,0,0,0,-1.887,-1.8877,-1.8932,-1.8934,-1.8898,-1.8926,-1.893,-1.8944,-1.8966,-1.8969,-1.8952,-1.8951,-1.8987,-1.8991,-1.8995,-1.903,-1.9007,-1.9009,-1.901,-1.909,-1.9091,-1.9092,0,0,0,0,0,0,-1.8868,-1.8875,-1.893,-1.8906,-1.8913,-1.8928,-1.8943,-1.8945,-1.8954,-1.8971,-1.8973,-1.8959,-1.8987,-1.8992,-1.9019,-1.9031,-1.901,-1.9012,-1.9089,-1.9091,-1.9092,-1.91,0,0,0,0,0,0,-1.8866,-1.8874,-1.8885,-1.8906,-1.8914,-1.8954,-1.8944,-1.8946,-1.8958,-1.8958,-1.8978,-1.898,-1.8987,-1.9015,-1.9021,-1.9034,-1.9014,-1.9088,-1.909,-1.9091,-1.9099,-1.9102,-1.9104,0,0,0,0,0,-1.8863,-1.8886,-1.8886,-1.8893,-1.8929,-1.8955,-1.8959,-1.8966,-1.8959,-1.8971,-1.8981,-1.898,-1.9029,-1.9018,-1.9024,-1.9038,-1.9087,-1.9089,-1.9091,-1.9098,-1.9101,-1.9104,0,0,0,0,0,0,-1.8866,-1.8889,-1.8889,-1.8919,-1.8935,-1.8955,-1.8969,-1.897,-1.8988,-1.8986,-1.8994,-1.8999,-1.9025,-1.9035,-1.9022,-1.9067,-1.9057,-1.9061,-1.906,-1.9063,-1.9066,-1.9063,-1.9016,0,0,0,0,0,-1.887,-1.889,-1.8908,-1.8933,-1.8941,-1.8954,-1.8965,-1.897,-1.8986,-1.8993,-1.9005,-1.9021,-1.904,-1.9052,-1.9071,-1.91,-1.9105,-1.9113,-1.9116,-1.9118,-1.912,-1.9136,-1.914,-1.9099,-1.9099,-1.9099,0,0,-1.8878,-1.8893,-1.8905,-1.8934,-1.8947,-1.8966,-1.8959,-1.898,-1.8995,-1.8996,-1.9022,-1.9032,-1.905,-1.9078,-1.9091,-1.9087,-1.9133,-1.912,-1.9122,-1.9123,-1.9139,-1.9143,-1.9146,-1.91,-1.91,-1.91,0,0,-1.8904,-1.8917,-1.8939,-1.8952,-1.8972,-1.8981,-1.8986,-1.9006,-1.9013,-1.9039,-1.904,-1.9058,-1.909,-1.9103,-1.9114,-1.9145,-1.9144,-1.9151,-1.9164,-1.918,-1.9183,-1.9186,-1.9197,-1.9201,-1.9154,-1.9154,-1.9154,0,-1.8911,-1.8942,-1.895,-1.8972,-1.8984,-1.8987,-1.9009,-1.9021,-1.9046,-1.9054,-1.9049,-1.909,-1.9103,-1.9134,-1.9142,-1.9151,-1.9157,-1.9148,-1.9182,-1.9185,-1.9188,-1.9198,-1.9202,-1.9154,-1.9154,-1.9154,-1.9154,0,-1.895,-1.8971,-1.8987,-1.9011,-1.9025,-1.9047,-1.9058,-1.9072,-1.9075,-1.9084,-1.9111,-1.9126,-1.9148,-1.9156,-1.9159,-1.9188,-1.9184,-1.9181,-1.9171,-1.9192,-1.9202,-1.9206,-1.9155,-1.9155,-1.9155,-1.9155,0,0,-1.8978,-1.9007,-1.9012,-1.9024,-1.9046,-1.9062,-1.9084,-1.9106,-1.9117,-1.9134,-1.9152,-1.9181,-1.9177,-1.919,-1.9195,-1.9209,-1.9232,-1.9203,-1.9204,-1.9208,-1.9265,-1.9267,-1.9271,-1.9232,-1.9233,-1.9234,-1.9263,0,-1.9005,-1.9044,-1.9053,-1.9086,-1.9106,-1.9109,-1.9128,-1.9143,-1.9152,-1.917,-1.918,-1.9199,-1.9194,-1.9202,-1.9216,-1.9226,-1.9243,-1.9224,-1.9249,-1.9249,-1.9243,-1.9277,-1.9279,-1.9306,-1.9267,-1.9268,-1.9268,0,-1.9042,-1.9061,-1.9097,-1.9117,-1.9125,-1.9142,-1.9163,-1.918,-1.9198,-1.9203,-1.9218,-1.9221,-1.9243,-1.9233,-1.9264,-1.9251,-1.9261,-1.9268,-1.9269,-1.9271,-1.926,-1.9279,-1.9315,-1.9319,-1.9274,-1.9274,-1.9273,0,-1.9058,-1.9092,-1.9118,-1.9128,-1.9152,-1.9164,-1.9174,-1.9191,-1.9204,-1.9222,-1.9231,-1.9251,-1.9262,-1.9277,-1.9286,-1.9278,-1.9316,-1.9307,-1.9321,-1.9321,-1.9329,-1.9328,-1.9366,-1.9336,-1.9336,-1.9336,-1.9336,0,-1.9088,-1.911,-1.9126,-1.9142,-1.9166,-1.9175,-1.9199,-1.9209,-1.9225,-1.9242,-1.9246,-1.9263,-1.9273,-1.9291,-1.9298,-1.9323,-1.9328,-1.9333,-1.9334,-1.9332,-1.9331,-1.9339,-1.9337,-1.9337,-1.9337,-1.9337,-1.9337,0,-1.911,-1.9121,-1.915,-1.9171,-1.9176,-1.9193,-1.9211,-1.9226,-1.9236,-1.9258,-1.9264,-1.9278,-1.93,-1.931,-1.9336,-1.9341,-1.9369,-1.9369,-1.9363,-1.9363,-1.9377,-1.9376,-1.9421,-1.9427,-1.9393,-1.9394,-1.9394,0,-1.9128,-1.9144,-1.9167,-1.918,-1.9191,-1.921,-1.9224,-1.9234,-1.9247,-1.9269,-1.9282,-1.9303,-1.9321,-1.9355,-1.9368,-1.9388,-1.9389,-1.9403,-1.9391,-1.9389,-1.9388,-1.9387,-1.9389,-1.9405,-1.9405,-1.9405,-1.9406,0,-1.9158,-1.9163,-1.9182,-1.9203,-1.9219,-1.9236,-1.9253,-1.9263,-1.9275,-1.929,-1.9313,-1.9326,-1.9354,-1.9375,-1.9396,-1.9407,-1.9408,-1.9409,-1.9414,-1.9412,-1.9407,-1.9409,-1.9368,-1.9408,-1.9408,-1.9408,-1.9408,-1.9407,-1.9178,-1.9193,-1.9212,-1.9233,-1.9247,-1.9262,-1.9278,-1.929,-1.9308,-1.9332,-1.9336,-1.936,-1.9378,-1.9406,-1.9418,-1.9436,-1.9433,-1.9439,-1.9441,-1.9442,-1.9443,-1.9405,-1.944,-1.944,-1.944,-1.944,-1.944,0,-1.9209,-1.9221,-1.924,-1.9264,-1.928,-1.9281,-1.93,-1.9314,-1.9334,-1.9351,-1.9369,-1.9394,-1.9415,-1.943,-1.9451,-1.9463,-1.9464,-1.9468,-1.9467,-1.9469,-1.9444,-1.9438,-1.9467,-1.9467,-1.9467,-1.9467,-1.9467,-1.9467,-1.9226,-1.9252,-1.9259,-1.9292,-1.9304,-1.9327,-1.9338,-1.9352,-1.9366,-1.9394,-1.9412,-1.9421,-1.9437,-1.946,-1.9479,-1.9483,-1.949,-1.9494,-1.9498,-1.9474,-1.9471,-1.9468,-1.9463,-1.9496,-1.9496,-1.9521,-1.9521,-1.9522]}]]